• Join FlightAware (Why Join?)
  • Login
  • US Flag 
07:35AM EDT


 

Airport Tracker/Info


-or-


 

Live Flight TrackerFlight Track Log ✈ N244A ✈ 14-Sep-2013 ✈ CYUL - KTEB

Flight Track Log - Related Links

Times and Time Zones

All times are in EDT time to prevent confusion due to time zone crossing. See the N244A flight status page for this flight to view local times or setup timezone preferences in your user account.

Time Position Orientation Groundspeed Altitude Reporting Facility
EDT Latitude Longitude Course Direction KTS MPH feet Rate Location/Type
09:35PM 45.4667 -73.7000 360° North 80 92 100  Level Montreal Center
09:36PM 45.4667 -73.7000 247° West 10 12 100 360 Level Montreal Center
09:38PM 45.3453 -73.7102 193° South  Level Estimated
09:39PM 45.4517 -73.7506 193° South 422 486 1,300  Level Boston Center
09:40PM 45.4011 -73.7939 211° Southwest 296 341 4,600 3,120 Climbing Boston Center
09:41PM 45.3322 -73.8247 197° South 275 316 7,600 3,120 Climbing Boston Center
09:42PM 45.2525 -73.8669 200° South 285 328 11,000 2,580 Climbing Boston Center
09:42PM 45.1500 -73.8833 186° South 360 414 12,600 2,220 Climbing Montreal Center
09:43PM 45.0500 -73.8667 173° South 380 437 15,300 2,280 Climbing Montreal Center
09:44PM 44.9333 -73.8667 180° South 390 449 17,200 1,680 Climbing Montreal Center
09:46PM 44.8253 -73.8742 183° South 413 475 18,800 1,380 Climbing Boston Center
09:47PM 44.7003 -73.8711 179° South 442 509 20,100 1,320 Climbing Boston Center
09:48PM 44.5733 -73.8622 177° South 459 528 21,500 1,380 Climbing Boston Center
09:49PM 44.4547 -73.8594 179° South 465 535 22,900 1,500 Climbing Boston Center
09:50PM 44.3256 -73.8561 179° South 465 535 24,500 1,320 Climbing Boston Center
09:51PM 44.1817 -73.8558 180° South 465 535 25,500 720 Climbing Boston Center
09:52PM 44.0486 -73.8467 177° South 471 542 26,000 240 Climbing Boston Center
09:53PM 43.9047 -73.8406 178° South 495 570 26,000  Level Boston Center
09:54PM 43.7589 -73.8372 179° South 517 595 26,000  Level Boston Center
09:55PM 43.6300 -73.8314 178° South 517 595 26,000  Level Boston Center
09:56PM 43.4903 -73.8308 180° South 512 589 26,000 -420 Level Boston Center
09:57PM 43.3319 -73.8217 178° South 512 589 25,200 -900 Descending Boston Center
09:58PM 43.1861 -73.8183 179° South 522 601 24,200 -720 Descending Boston Center
09:59PM 43.0444 -73.8181 180° South 522 601 23,800 -540 Descending Boston Center
10:00PM 42.9089 -73.8122 178° South 506 582 23,200 -1,200 Descending Boston Center
10:01PM 42.7797 -73.8064 178° South 487 560 21,400 -1,680 Descending Boston Center
10:02PM 42.6581 -73.8742 202° Southwest 465 535 19,900 -1,500 Descending Boston Center
10:03PM 42.5508 -73.9508 208° Southwest 446 513 18,400 -1,140 Descending Boston Center
10:04PM 42.4583 -74.0189 208° Southwest 436 502 17,700 -1,020 Descending Boston Center
10:05PM 42.3486 -74.1003 209° Southwest 418 481 16,500 -1,320 Descending Boston Center
10:06PM 42.2600 -74.1681 210° Southwest 413 475 15,100 -1,200 Descending Boston Center
10:07PM 42.1569 -74.2408 208° Southwest 398 458 14,100 -540 Descending Boston Center
10:08PM 42.0808 -74.2947 208° Southwest 362 417 14,100  Level Boston Center
10:09PM 41.9925 -74.3564 207° Southwest 335 386 14,100  Level Boston Center
10:10PM 41.9228 -74.4100 210° Southwest 325 374 14,100 -60 Level Boston Center
10:11PM 41.8342 -74.4714 207° Southwest 330 380 14,000 -1,080 Descending Boston Center
10:12PM 41.7644 -74.5219 208° Southwest 330 380 12,000 -2,280 Descending Boston Center
10:13PM 41.6681 -74.5439 190° South 316 364 9,600 -1,920 Descending Boston Center
10:14PM 41.5928 -74.5553 186° South 310 357 8,100 -780 Descending Boston Center
10:15PM 41.5028 -74.5744 189° South 310 357 8,100 -540 Level Boston Center
10:16PM 41.3667 -74.6000 188° South 312 359 6,800 -840 Descending New York TRACON
10:17PM 41.2833 -74.6333 197° South 299 344 6,000 -480 Descending New York TRACON
10:18PM 41.2000 -74.6500 189° South 296 341 5,800 -600 Descending New York TRACON
10:19PM 41.1333 -74.6333 169° South 284 327 4,900 -900 Descending New York TRACON
10:20PM 41.0500 -74.6000 163° South 277 319 4,100 -900 Descending New York TRACON
10:21PM 41.0000 -74.5500 143° Southeast 249 287 3,100 -600 Descending New York TRACON
10:22PM 40.9500 -74.4833 135° Southeast 261 300 3,000 -60 Descending New York TRACON
10:23PM 40.8833 -74.4333 150° Southeast 276 318 3,000 -120 Level New York TRACON
10:24PM 40.8167 -74.3833 150° Southeast 256 295 2,800 -540 Descending New York TRACON
10:25PM 40.7667 -74.3167 135° Southeast 217 250 2,000 -420 Descending New York TRACON
10:26PM 40.7500 -74.2667 114° Southeast 187 215 2,000  Level New York TRACON
10:27PM 40.7667 -74.2167 66° East 169 194 2,000 -180 Level New York TRACON
10:28PM 40.7833 -74.1667 66° East 139 160 1,700 -480 Descending New York TRACON
10:29PM 40.8000 -74.1333 57° Northeast 141 162 1,200 -420 Descending New York TRACON
10:30PM 40.8000 -74.0667 90° East 157 181 900 -300 Descending New York TRACON